Location: Mercogliano
(40.9167°N, 14.7333°E)
Time: 05:01:27
(UTC+00:00)

Cosmos 2150 Rocket - Pass Details

Date: 25 January 2021
Orbit: 748 x 808 km, 74.0° (Epoch: 06 March)

Event Time Altitude Azimuth Distance (km) Brightness Sun altitude
Rises 18:36:01 0° 196° (SSW) 3,178 7.4 -27.6°
Reaches altitude 10° 18:38:21 10° 195° (SSW) 2,260 6.6 -28.0°
Enters shadow 18:41:19 36° 193° (SSW) 1,180 5.0 -28.6°
